Location: Gleizolles
(44.4833°N, 6.7667°E)
Time: 14:04:21
(UTC+00:00)

deb Explorer IX - Pass Details

Date: 02 July 2024
Orbit: 510 x 878 km, 38.7° (Epoch: 21 July)

Event Time Altitude Azimuth Distance (km) Brightness Sun altitude
Rises 06:49:23 0° 264° (W) 2,626 ? 28.5°
Reaches altitude 10° 06:51:41 10° 254° (WSW) 1,762 ? 28.9°
Maximum altitude 06:55:17 32° 190° (S) 950 ? 29.6°
Drops below altitude 10° 06:59:08 10° 126° (SE) 1,891 ? 30.3°
Sets 07:01:42 0° 117° (ESE) 2,853 ? 30.7°
